Weather History for Jackson, KY

Change the Weather History Date:

Thursday, April 26, 2012

  Actual Average Record
Temperature  
Mean Temperature 67 °F 60 °F  
Max Temperature 76 °F 71 °F 90 °F (1986)
Min Temperature 58 °F 50 °F 39 °F (2002)
Degree Days  
Heating Degree Days 0 6  
Month to date heating degree days 233 246  
Since 1 July heating degree days 3288 4099  
Cooling Degree Days 2 2  
Month to date cooling degree days 20 33  
Year to date cooling degree days 82 40  
Growing Degree Days 18 (Base 50)    
Moisture  
Dew Point 59 °F    
Average Humidity 80    
Maximum Humidity 97    
Minimum Humidity 63    
Precipitation  
Precipitation 0.52 in 0.14 in 0.66 in (1996)
Month to date precipitation 2.25 3.29  
Year to date precipitation 15.08 14.77  
Snow  
Snow 0.00 in 0.00 in - ()
Month to date snowfall 0.0 1.0  
Since 1 July snowfall 14.2 23.5  
Snow Depth 0.00 in    
Sea Level Pressure  
Sea Level Pressure 29.76 in    
Wind  
Wind Speed 4 mph (WNW)    
Max Wind Speed 7 mph    
Max Gust Speed 24 mph    
Visibility 8 miles    
Events Rain , Thunderstorm    
T = Trace of Precipitation, MM = Missing Value Source: NWS Daily Summary

Daily Weather History Graph

Daily Weather History Graph

Search for Another Location

Airport:

Trip Planner

Search our weather history database for the weather conditions in past years. The results will help you decide how hot, cold, wet, or windy it might be!

Date:

Astronomy

Apr. 26, 2012 Rise Set
Actual Time 6:43 AM EDT 8:19 PM EDT
Civil Twilight 6:15 AM EDT 8:47 PM EDT
Nautical Twilight 5:42 AM EDT 9:20 PM EDT
Astronomical Twilight 5:06 AM EDT 9:56 PM EDT
Moon 10:24 AM EDT 12:21 AM EDT
Length of Visible Light 14h 31m
Length of Day
13h 36m
Waxing Crescent, 24% of the Moon is Illuminated
Apr 26
Waxing Crescent
Apr 29
First Quarter
May 5
Full
May 12
Last Quarter
May 20
New

Hourly Weather History & Observations

Time (EDT) Temp. Dew Point Humidity Pressure Visibility Wind Dir Wind Speed Gust Speed Precip Events Conditions
12:07 AM 60.8 °F 57.2 °F 88% 29.78 in 7.0 mi Calm Calm - 0.00 in Rain Light Rain
12:53 AM 60.1 °F 59.0 °F 96% 29.71 in 9.0 mi Variable 3.5 mph - 0.00 in   Overcast
1:53 AM 61.0 °F 59.0 °F 93% 29.70 in 10.0 mi Variable 3.5 mph - N/A   Overcast
2:53 AM 62.1 °F 59.0 °F 90% 29.68 in 10.0 mi Variable 3.5 mph - N/A   Overcast
3:53 AM 63.0 °F 60.1 °F 90% 29.70 in 10.0 mi Variable 3.5 mph - N/A   Overcast
4:53 AM 63.0 °F 59.0 °F 87% 29.70 in 10.0 mi Calm Calm - N/A   Overcast
5:25 AM 64.4 °F 57.2 °F 77% 29.73 in 10.0 mi Calm Calm - N/A Thunderstorm Overcast
5:50 AM 62.6 °F 59.0 °F 88% 29.72 in 2.5 mi Calm Calm - 0.09 in Rain , Thunderstorm Heavy Thunderstorms and Rain
5:53 AM 62.1 °F 59.0 °F 90% 29.70 in 1.5 mi Calm Calm - 0.11 in Rain , Thunderstorm Heavy Thunderstorms and Rain
6:08 AM 62.6 °F 59.0 °F 88% 29.72 in 3.0 mi Calm Calm - 0.18 in Rain , Thunderstorm Light Thunderstorms and Rain
6:53 AM 62.1 °F 59.0 °F 90% 29.68 in 2.5 mi Calm Calm - 0.24 in Rain Light Rain
7:02 AM 62.6 °F 59.0 °F 88% 29.70 in 5.0 mi Variable 3.5 mph - 0.01 in Rain Light Rain
7:14 AM 62.6 °F 59.0 °F 88% 29.71 in 5.0 mi Calm Calm - 0.05 in Rain , Thunderstorm Light Rain
7:53 AM 61.0 °F 59.0 °F 93% 29.68 in 10.0 mi Calm Calm - 0.06 in Thunderstorm Overcast
8:09 AM 62.6 °F 59.0 °F 88% 29.72 in 10.0 mi Calm Calm - N/A   Overcast
8:28 AM 60.8 °F 59.0 °F 94% 29.74 in 5.0 mi Variable 4.6 mph - 0.01 in Rain , Thunderstorm Rain
8:53 AM 61.0 °F 59.0 °F 93% 29.73 in 5.0 mi Variable 3.5 mph - 0.06 in Rain , Thunderstorm Light Rain
9:07 AM 60.8 °F 59.0 °F 94% 29.75 in 2.5 mi Variable 3.5 mph - 0.03 in Rain Light Rain
9:16 AM 60.8 °F 59.0 °F 94% 29.75 in 1.5 mi Variable 4.6 mph - 0.05 in Rain Light Rain
9:23 AM 60.8 °F 59.0 °F 94% 29.75 in 2.0 mi Variable 5.8 mph - 0.05 in Rain Light Rain
9:31 AM 60.8 °F 59.0 °F 94% 29.75 in 8.0 mi Variable 4.6 mph - 0.05 in Rain Light Rain
9:53 AM 60.1 °F 59.0 °F 96% 29.74 in 9.0 mi Variable 3.5 mph - 0.05 in   Mostly Cloudy
10:31 AM 62.6 °F 60.8 °F 94% 29.77 in 10.0 mi Calm Calm - N/A   Mostly Cloudy
10:53 AM 64.0 °F 60.1 °F 87% 29.74 in 10.0 mi Variable 5.8 mph - N/A   Mostly Cloudy
11:02 AM 64.4 °F 60.8 °F 88% 29.77 in 10.0 mi Variable 5.8 mph - N/A   Overcast
11:38 AM 64.4 °F 60.8 °F 88% 29.78 in 10.0 mi Variable 4.6 mph - N/A   Overcast
11:53 AM 64.9 °F 60.1 °F 84% 29.75 in 10.0 mi Variable 4.6 mph - N/A   Overcast
12:53 PM 68.0 °F 61.0 °F 78% 29.75 in 10.0 mi Variable 6.9 mph - N/A   Overcast
1:53 PM 71.1 °F 62.1 °F 73% 29.75 in 10.0 mi Variable 6.9 mph - N/A   Overcast
2:46 PM 75.2 °F 62.6 °F 65% 29.79 in 10.0 mi West 8.1 mph 21.9 mph N/A   Overcast
2:53 PM 73.9 °F 63.0 °F 68% 29.75 in 10.0 mi Variable 4.6 mph - N/A   Overcast
3:28 PM 75.2 °F 62.6 °F 65% 29.78 in 10.0 mi Variable 5.8 mph - N/A   Mostly Cloudy
3:35 PM 73.4 °F 62.6 °F 69% 29.78 in 10.0 mi Variable 3.5 mph - N/A   Mostly Cloudy
3:53 PM 73.0 °F 63.0 °F 71% 29.74 in 10.0 mi Calm Calm - N/A   Overcast
4:41 PM 71.6 °F 62.6 °F 73% 29.77 in 10.0 mi Calm Calm - N/A Thunderstorm Thunderstorm
4:53 PM 71.1 °F 62.1 °F 73% 29.75 in 10.0 mi Variable 3.5 mph - N/A Thunderstorm Thunderstorm
5:23 PM 73.4 °F 62.6 °F 69% 29.77 in 10.0 mi Calm Calm - N/A   Partly Cloudy
5:53 PM 73.0 °F 62.1 °F 68% 29.76 in 10.0 mi Calm Calm - N/A   Mostly Cloudy
6:53 PM 71.1 °F 62.1 °F 73% 29.78 in 10.0 mi Variable 4.6 mph - N/A   Mostly Cloudy
7:53 PM 68.0 °F 59.0 °F 73% 29.82 in 10.0 mi Calm Calm - N/A   Partly Cloudy
8:53 PM 66.9 °F 54.0 °F 63% 29.84 in 10.0 mi Variable 4.6 mph - N/A   Partly Cloudy
9:53 PM 64.0 °F 53.1 °F 67% 29.88 in 10.0 mi Variable 5.8 mph - N/A   Clear
10:53 PM 63.0 °F 52.0 °F 67% 29.91 in 10.0 mi NW 5.8 mph - N/A   Clear
11:53 PM 60.8 °F 50.0 °F 68% 29.96 in 10.0 mi Variable 5.8 mph - N/A   Mostly Cloudy